Starlink 33851

operational
NORAD ID: 63683 Int'l Des: 2025-085 Owner: SPXS Country: US Constellation: starlink
LEOCIRCULAR

Starlink 33851について

説明を読み込み中...

リアルタイム位置

3D地球を読み込み中...

次回通過

高度履歴

Altitude vs Time

uPlot chart will show altitude changes over time

軌道要素

1 63683U 25085V 25302.98542730 .00018073 00000-0 66420-3 0 9996
2 63683 43.0013 48.7817 0000825 270.6134 89.4623 15.27603164 28885
Epoch: Oct 29, 2025 • Age: 27 hours

現在のステータス

高度 482.9 km
速度 7.63 km/s
衛星直下点 -1.41°S, 137.34°E
打ち上げ日 Apr 28, 2025
運用期間 0.5 years
タイプ internet

技術仕様

分類 Payload
質量 575.00 kg
乾燥質量 530.00 kg
総質量 575.00 kg
長さ 0.30 m
直径 4.10 m
スパン 29.00 m
形状 Box + pan
製造者 SPXS
バスタイプ Starlink V2MO
フェーズステータス In Orbit
所有者/国 SPXS/US

大規模コンステレーション

Loading constellations...